Location: Shenandoah County Park
(38.9356°N, 78.4524°W)
Time: 14:54:48
(UTC-05:00)

Vanguard 2 Rocket - Pass Details

Date: 10 December 2023
Orbit: 555 x 3309 km, 32.9° (Epoch: 03 March)

Event Time Altitude Azimuth Distance (km) Brightness Sun altitude
Rises 20:37:05 0° 281° (WNW) 7,295 12.3 -43.0°
Reaches altitude 10° 20:43:46 10° 269° (W) 6,217 11.7 -44.3°
Maximum altitude 20:56:31 22° 228° (SW) 4,738 10.7 -46.8°
Drops below altitude 10° 21:06:54 10° 184° (S) 4,922 10.5 -48.8°
Enters shadow 21:08:01 - 180° (S) 5,038 10.6 -49.0°
Sets 21:11:24 0° 170° (S) 5,486 - -49.6°
